Бустон

Таджикистан     40°13′59″N   69°41′51″E
темп.,
°C
ветер,
м/с
пор.,
м/с
влажн.,
%
обл.,
%
осадки,
мм/ч
давл.,
гПа
погр.,
м
11 мая, вт
вт1123:00+20зюз6858100 0.0 1011446
02:00+19зюз6865100 0.0 1012551
05:00+18з4870100 0.0 1013435
08:00+20зюз5859100 0.0 1015604
11:00+25з6730100 0.0 10151202
14:00+28з88200 0.0 10142044
17:00+28з77180 0.0 10142331
20:00+24зсз48250 0.0 1014353
12 мая, ср
ср1223:00+22юз33292 0.0 101492
02:00+20зюз24300 0.0 1013116
05:00+19зюз34330 0.0 1013114
08:00+22з45290 0.0 1014472
11:00+26з55230 0.0 10131591
14:00+28з77200 0.0 10122193
17:00+28зсз67200 0.0 10112459
20:00+25зсз48270 0.0 1011481
13 мая, чт
чт1323:00+22юз34320 0.0 1011184
02:00+19ссв11430 0.0 1011115
05:00+18з33510 0.0 1012123
08:00+20з22450 0.0 1012534
11:00+24юв12320 0.0 10111316
14:00+27з22240 0.0 10091986
17:00+27з75240 0.0 10092049
20:00+24зюз57280 0.0 1010335
14 мая, пт
пт1423:00+22зюз35325 0.0 1011186
02:00+20з463592 0.0 1011263
05:00+17з46413 0.0 1012207
08:00+20з45300 0.0 1013515
11:00+25зюз322494 0.0 1012985
14:00+28зюз322098 0.0 10101461
17:00+29з43205 0.0 10092072
20:00+26зюз45299 0.0 1009228
15 мая, сб
сб1523:00+24зюз23318 0.0 100997
02:00+22зюз34332 0.0 1008111
05:00+20з45350 0.0 1009136
08:00+22зюз33340 0.0 1010402
11:00+26зюз11260 0.0 1009933
14:00+31зюз32180 0.0 10072041
17:00+31з64216 0.0 10062768
20:00+28з352581 0.0 1006793